Orbital Elements at Epoch 2459200.5 (2020-Dec-17.0) TDB
Reference: JPL 17 (heliocentric ecliptic J2000)
Element | Value | Uncertainty (1-sigma) | Units |
e | .1988096007643124 | 4.9807e-08 | |
a | 3.10931022219657 | 2.9038e-08 | au |
q | 2.491149498269274 | 1.5624e-07 | au |
i | 10.41960244846121 | 6.8511e-06 | deg |
node | 340.9738355789045 | 2.2729e-05 | deg |
peri | 143.8899684674592 | 2.7472e-05 | deg |
M | 284.4178686084948 | 1.7189e-05 | deg |
tp | 2459620.946888443182 (2022-Feb-10.44688844) | 9.9063e-05 | TDB |
period | 2002.601369568643 5.48 | 2.8053e-05 7.68e-08 | d yr |
n | .1797661808638149 | 2.5183e-09 | deg/d |
Q | 3.727470946123866 | 3.4811e-08 | au |
|
| | Orbit Determination Parameters
Additional Information
|